Time,TemperatureF,DewpointF,PressureIn,WindDirection,WindDirectionDegrees,WindSpeedMPH,WindSpeedGustMPH,Humidity,HourlyPrecipIn,Conditions,Clouds,dailyrainin,SoftwareType,DateUTC
2013-11-14 00:00:00,30.9,22.6,30.21,SSW,192,4.0,5.0,71,0.00,,,0.00,Wunderground v.1.15,2013-11-14 06:00:00,
2013-11-14 00:10:00,30.9,22.6,30.21,South,171,4.0,4.0,71,0.00,,,0.00,Wunderground v.1.15,2013-11-14 06:10:00,
2013-11-14 00:20:00,30.7,22.7,30.20,SSE,148,4.0,13.0,72,0.00,,,0.00,Wunderground v.1.15,2013-11-14 06:20:00,
2013-11-14 00:25:00,30.5,22.5,30.20,SSW,210,4.0,13.0,72,0.00,,,0.00,Wunderground v.1.15,2013-11-14 06:25:00,
2013-11-14 00:35:00,30.4,22.8,30.20,South,169,4.0,13.0,73,0.00,,,0.00,Wunderground v.1.15,2013-11-14 06:35:00,
2013-11-14 00:45:00,30.4,22.8,30.19,SSE,168,4.0,13.0,73,0.00,,,0.00,Wunderground v.1.15,2013-11-14 06:45:00,
2013-11-14 00:55:00,30.4,22.8,30.19,SSE,162,4.0,5.0,73,0.00,,,0.00,Wunderground v.1.15,2013-11-14 06:55:00,
2013-11-14 01:00:00,30.4,22.4,30.19,SSE,152,4.0,4.0,72,0.00,,,0.00,Wunderground v.1.15,2013-11-14 07:00:00,
2013-11-14 01:10:00,30.4,22.4,30.19,WSW,240,4.0,9.0,72,0.00,,,0.00,Wunderground v.1.15,2013-11-14 07:10:00,
2013-11-14 01:15:00,30.4,22.4,30.20,SSW,202,4.0,9.0,72,0.00,,,0.00,Wunderground v.1.15,2013-11-14 07:15:00,
2013-11-14 01:25:00,30.2,22.6,30.20,SSW,200,3.0,9.0,73,0.00,,,0.00,Wunderground v.1.15,2013-11-14 07:25:00,
2013-11-14 01:35:00,30.2,22.6,30.20,South,189,3.0,9.0,73,0.00,,,0.00,Wunderground v.1.15,2013-11-14 07:35:00,
2013-11-14 01:45:00,30.2,22.3,30.20,SE,145,3.0,9.0,72,0.00,,,0.00,Wunderground v.1.15,2013-11-14 07:45:00,
2013-11-14 01:55:00,30.0,22.4,30.20,SSE,160,3.0,9.0,73,0.00,,,0.00,Wunderground v.1.15,2013-11-14 07:55:00,
2013-11-14 02:00:00,29.8,22.2,30.20,South,179,3.0,5.0,73,0.00,,,0.00,Wunderground v.1.15,2013-11-14 08:00:00,
2013-11-14 02:10:00,29.5,22.2,30.20,South,179,2.0,11.0,74,0.00,,,0.00,Wunderground v.1.15,2013-11-14 08:10:00,
2013-11-14 02:15:00,29.4,22.1,30.20,SW,219,2.0,11.0,74,0.00,,,0.00,Wunderground v.1.15,2013-11-14 08:15:00,
2013-11-14 02:25:00,29.6,22.3,30.20,SE,145,3.0,11.0,74,0.00,,,0.00,Wunderground v.1.15,2013-11-14 08:25:00,
2013-11-14 02:35:00,29.4,22.1,30.19,SE,146,3.0,11.0,74,0.00,,,0.00,Wunderground v.1.15,2013-11-14 08:35:00,
2013-11-14 02:45:00,29.5,22.2,30.19,SE,141,4.0,11.0,74,0.00,,,0.00,Wunderground v.1.15,2013-11-14 08:45:00,
2013-11-14 02:50:00,29.6,22.0,30.19,South,181,4.0,4.0,73,0.00,,,0.00,Wunderground v.1.15,2013-11-14 08:50:00,
2013-11-14 03:00:00,29.7,21.8,30.18,SSE,152,3.0,4.0,72,0.00,,,0.00,Wunderground v.1.15,2013-11-14 09:00:00,
2013-11-14 03:05:00,29.8,21.5,30.18,SW,225,4.0,9.0,71,0.00,,,0.00,Wunderground v.1.15,2013-11-14 09:05:00,
2013-11-14 03:15:00,29.9,21.6,30.18,South,175,4.0,9.0,71,0.00,,,0.00,Wunderground v.1.15,2013-11-14 09:15:00,
2013-11-14 03:25:00,29.9,21.6,30.17,SSE,160,4.0,9.0,71,0.00,,,0.00,Wunderground v.1.15,2013-11-14 09:25:00,
2013-11-14 03:35:00,29.8,21.9,30.17,SSE,162,4.0,9.0,72,0.00,,,0.00,Wunderground v.1.15,2013-11-14 09:35:00,
2013-11-14 03:40:00,29.7,21.8,30.17,SSW,200,3.0,3.0,72,0.00,,,0.00,Wunderground v.1.15,2013-11-14 09:40:00,
2013-11-14 03:50:00,29.3,21.7,30.16,SSE,162,2.0,9.0,73,0.00,,,0.00,Wunderground v.1.15,2013-11-14 09:50:00,
2013-11-14 03:55:00,29.3,21.7,30.16,SE,144,2.0,9.0,73,0.00,,,0.00,Wunderground v.1.15,2013-11-14 09:55:00,
2013-11-14 04:00:00,29.4,21.5,30.16,SSE,167,3.0,3.0,72,0.00,,,0.00,Wunderground v.1.15,2013-11-14 10:00:00,
2013-11-14 04:10:00,29.4,21.8,30.16,SSW,199,2.0,9.0,73,0.00,,,0.00,Wunderground v.1.15,2013-11-14 10:10:00,
2013-11-14 04:20:00,29.2,21.6,30.15,East,93,2.0,9.0,73,0.00,,,0.00,Wunderground v.1.15,2013-11-14 10:20:00,
2013-11-14 04:30:00,29.2,21.6,30.15,SSW,212,2.0,9.0,73,0.00,,,0.00,Wunderground v.1.15,2013-11-14 10:30:00,
2013-11-14 04:40:00,29.4,21.8,30.14,SSE,148,3.0,9.0,73,0.00,,,0.00,Wunderground v.1.15,2013-11-14 10:40:00,
2013-11-14 04:50:00,29.7,21.8,30.14,South,179,3.0,9.0,72,0.00,,,0.00,Wunderground v.1.15,2013-11-14 10:50:00,
2013-11-14 04:55:00,29.8,21.9,30.14,WSW,253,3.0,9.0,72,0.00,,,0.00,Wunderground v.1.15,2013-11-14 10:55:00,
2013-11-14 05:00:00,30.1,21.8,30.14,SSW,200,3.0,3.0,71,0.00,,,0.00,Wunderground v.1.15,2013-11-14 11:00:00,
2013-11-14 05:10:00,30.4,21.8,30.14,SE,137,4.0,11.0,70,0.00,,,0.00,Wunderground v.1.15,2013-11-14 11:10:00,
2013-11-14 05:15:00,30.5,21.9,30.14,South,169,4.0,11.0,70,0.00,,,0.00,Wunderground v.1.15,2013-11-14 11:15:00,
2013-11-14 05:25:00,30.6,22.0,30.13,SSW,196,4.0,11.0,70,0.00,,,0.00,Wunderground v.1.15,2013-11-14 11:25:00,
2013-11-14 05:30:00,30.6,22.0,30.13,SSE,155,4.0,11.0,70,0.00,,,0.00,Wunderground v.1.15,2013-11-14 11:30:00,
2013-11-14 05:40:00,30.5,21.9,30.13,SW,234,4.0,11.0,70,0.00,,,0.00,Wunderground v.1.15,2013-11-14 11:40:00,
2013-11-14 05:45:00,30.4,21.8,30.13,SE,133,4.0,11.0,70,0.00,,,0.00,Wunderground v.1.15,2013-11-14 11:45:00,
2013-11-14 05:55:00,30.3,21.7,30.12,SE,142,4.0,11.0,70,0.00,,,0.00,Wunderground v.1.15,2013-11-14 11:55:00,
2013-11-14 06:00:00,30.2,21.9,30.12,SSW,195,4.0,5.0,71,0.00,,,0.00,Wunderground v.1.15,2013-11-14 12:00:00,
2013-11-14 06:10:00,30.4,21.8,30.11,WSW,241,5.0,5.0,70,0.00,,,0.00,Wunderground v.1.15,2013-11-14 12:10:00,
2013-11-14 06:20:00,30.5,21.9,30.12,SSW,207,5.0,10.0,70,0.00,,,0.00,Wunderground v.1.15,2013-11-14 12:20:00,
2013-11-14 06:30:00,30.7,22.1,30.12,SW,223,5.0,5.0,70,0.00,,,0.00,Wunderground v.1.15,2013-11-14 12:30:00,
2013-11-14 06:35:00,30.6,22.0,30.12,WSW,240,4.0,10.0,70,0.00,,,0.00,Wunderground v.1.15,2013-11-14 12:35:00,
2013-11-14 06:45:00,30.5,21.9,30.12,SSW,212,4.0,10.0,70,0.00,,,0.00,Wunderground v.1.15,2013-11-14 12:45:00,
2013-11-14 06:50:00,30.4,22.1,30.12,WSW,238,4.0,10.0,71,0.00,,,0.00,Wunderground v.1.15,2013-11-14 12:50:00,
2013-11-14 07:00:00,30.2,21.9,30.12,SW,234,3.0,3.0,71,0.00,,,0.00,Wunderground v.1.15,2013-11-14 13:00:00,
2013-11-14 07:10:00,30.4,22.1,30.12,SSE,162,3.0,12.0,71,0.00,,,0.00,Wunderground v.1.15,2013-11-14 13:10:00,
2013-11-14 07:20:00,30.6,22.3,30.12,SSW,196,3.0,3.0,71,0.00,,,0.00,Wunderground v.1.15,2013-11-14 13:20:00,
2013-11-14 07:25:00,30.8,22.5,30.12,SW,229,4.0,4.0,71,0.00,,,0.00,Wunderground v.1.15,2013-11-14 13:25:00,
2013-11-14 07:35:00,31.1,22.8,30.11,SW,219,4.0,4.0,71,0.00,,,0.00,Wunderground v.1.15,2013-11-14 13:35:00,
2013-11-14 07:40:00,31.4,23.1,30.12,SSW,198,4.0,4.0,71,0.00,,,0.00,Wunderground v.1.15,2013-11-14 13:40:00,
2013-11-14 07:50:00,31.9,23.2,30.12,SSW,208,4.0,4.0,70,0.00,,,0.00,Wunderground v.1.15,2013-11-14 13:50:00,
2013-11-14 08:00:00,32.5,23.5,30.12,SSW,210,4.0,4.0,69,0.00,,,0.00,Wunderground v.1.15,2013-11-14 14:00:00,
2013-11-14 08:10:00,33.1,23.7,30.13,SW,224,5.0,5.0,68,0.00,,,0.00,Wunderground v.1.15,2013-11-14 14:10:00,
2013-11-14 08:15:00,33.5,23.7,30.12,SSE,159,4.0,12.0,67,0.00,,,0.00,Wunderground v.1.15,2013-11-14 14:15:00,
2013-11-14 08:25:00,34.3,24.1,30.12,WSW,243,5.0,9.0,66,0.00,,,0.00,Wunderground v.1.15,2013-11-14 14:25:00,
2013-11-14 08:30:00,34.7,24.5,30.12,SW,222,5.0,12.0,66,0.00,,,0.00,Wunderground v.1.15,2013-11-14 14:30:00,
2013-11-14 08:40:00,35.5,24.5,30.12,South,188,6.0,12.0,64,0.00,,,0.00,Wunderground v.1.15,2013-11-14 14:40:00,
2013-11-14 08:50:00,36.2,24.4,30.12,SSW,212,6.0,12.0,62,0.00,,,0.00,Wunderground v.1.15,2013-11-14 14:50:00,
2013-11-14 09:00:00,37.2,25.0,30.12,SSE,168,6.0,7.0,61,0.00,,,0.00,Wunderground v.1.15,2013-11-14 15:00:00,
2013-11-14 09:10:00,37.9,24.4,30.11,SW,218,6.0,13.0,58,0.00,,,0.00,Wunderground v.1.15,2013-11-14 15:10:00,
2013-11-14 09:20:00,38.5,25.0,30.11,South,177,7.0,7.0,58,0.00,,,0.00,Wunderground v.1.15,2013-11-14 15:20:00,
2013-11-14 09:30:00,39.3,25.7,30.11,South,186,7.0,7.0,58,0.00,,,0.00,Wunderground v.1.15,2013-11-14 15:30:00,
2013-11-14 09:40:00,40.0,26.0,30.11,SSW,198,6.0,6.0,57,0.00,,,0.00,Wunderground v.1.15,2013-11-14 15:40:00,
2013-11-14 09:50:00,40.9,26.4,30.11,SSW,203,7.0,7.0,56,0.00,,,0.00,Wunderground v.1.15,2013-11-14 15:50:00,
2013-11-14 10:00:00,41.2,25.8,30.10,SW,214,7.0,12.0,54,0.00,,,0.00,Wunderground v.1.15,2013-11-14 16:00:00,
2013-11-14 10:10:00,41.6,26.2,30.10,SSW,213,7.0,7.0,54,0.00,,,0.00,Wunderground v.1.15,2013-11-14 16:10:00,
2013-11-14 10:20:00,41.9,26.0,30.10,SW,217,7.0,7.0,53,0.00,,,0.00,Wunderground v.1.15,2013-11-14 16:20:00,
2013-11-14 10:25:00,42.1,26.6,30.10,SW,222,7.0,13.0,54,0.00,,,0.00,Wunderground v.1.15,2013-11-14 16:25:00,
2013-11-14 10:35:00,42.8,26.4,30.09,SSW,197,7.0,13.0,52,0.00,,,0.00,Wunderground v.1.15,2013-11-14 16:35:00,
2013-11-14 10:40:00,43.3,27.3,30.09,SW,236,7.0,13.0,53,0.00,,,0.00,Wunderground v.1.15,2013-11-14 16:40:00,
2013-11-14 10:50:00,43.8,27.8,30.09,SSW,200,7.0,7.0,53,0.00,,,0.00,Wunderground v.1.15,2013-11-14 16:50:00,
2013-11-14 11:00:00,44.7,28.1,30.08,SW,219,6.0,6.0,52,0.00,,,0.00,Wunderground v.1.15,2013-11-14 17:00:00,
2013-11-14 11:10:00,44.8,26.8,30.08,SW,227,7.0,15.0,49,0.00,,,0.00,Wunderground v.1.15,2013-11-14 17:10:00,
2013-11-14 11:15:00,45.0,27.0,30.08,SSW,202,7.0,15.0,49,0.00,,,0.00,Wunderground v.1.15,2013-11-14 17:15:00,
2013-11-14 11:25:00,45.6,27.5,30.07,South,175,6.0,15.0,49,0.00,,,0.00,Wunderground v.1.15,2013-11-14 17:25:00,
2013-11-14 11:30:00,45.5,26.9,30.06,SSW,206,7.0,15.0,48,0.00,,,0.00,Wunderground v.1.15,2013-11-14 17:30:00,
2013-11-14 11:40:00,45.6,27.5,30.05,SW,221,7.0,7.0,49,0.00,,,0.00,Wunderground v.1.15,2013-11-14 17:40:00,
2013-11-14 11:50:00,45.8,27.2,30.04,SSE,166,6.0,6.0,48,0.00,,,0.00,Wunderground v.1.15,2013-11-14 17:50:00,
2013-11-14 12:00:00,46.0,27.9,30.04,SSW,200,7.0,7.0,49,0.00,,,0.00,Wunderground v.1.15,2013-11-14 18:00:00,
2013-11-14 12:10:00,46.7,27.5,30.03,SSW,195,7.0,7.0,47,0.00,,,0.00,Wunderground v.1.15,2013-11-14 18:10:00,
2013-11-14 12:20:00,47.4,27.6,30.03,SSW,207,6.0,16.0,46,0.00,,,0.00,Wunderground v.1.15,2013-11-14 18:20:00,
2013-11-14 12:30:00,48.1,28.8,30.03,SSW,200,6.0,6.0,47,0.00,,,0.00,Wunderground v.1.15,2013-11-14 18:30:00,
2013-11-14 12:35:00,48.3,28.5,30.03,SW,221,6.0,9.0,46,0.00,,,0.00,Wunderground v.1.15,2013-11-14 18:35:00,
2013-11-14 12:45:00,48.0,27.1,30.03,SSW,207,8.0,16.0,44,0.00,,,0.00,Wunderground v.1.15,2013-11-14 18:45:00,
2013-11-14 12:55:00,48.3,27.4,30.02,SW,224,7.0,16.0,44,0.00,,,0.00,Wunderground v.1.15,2013-11-14 18:55:00,
2013-11-14 13:00:00,48.4,26.9,30.02,SW,225,8.0,9.0,43,0.00,,,0.00,Wunderground v.1.15,2013-11-14 19:00:00,
2013-11-14 13:10:00,48.6,28.2,30.01,SW,221,7.0,16.0,45,0.00,,,0.00,Wunderground v.1.15,2013-11-14 19:10:00,
2013-11-14 13:20:00,50.2,29.1,30.01,SSW,203,6.0,16.0,44,0.00,,,0.00,Wunderground v.1.15,2013-11-14 19:20:00,
2013-11-14 13:30:00,51.0,28.1,30.01,South,171,6.0,16.0,41,0.00,,,0.00,Wunderground v.1.15,2013-11-14 19:30:00,
2013-11-14 13:40:00,50.6,28.9,30.00,South,179,7.0,16.0,43,0.00,,,0.00,Wunderground v.1.15,2013-11-14 19:40:00,
2013-11-14 13:45:00,50.6,28.3,30.00,SSW,193,6.0,16.0,42,0.00,,,0.00,Wunderground v.1.15,2013-11-14 19:45:00,
2013-11-14 13:55:00,51.0,29.3,29.99,South,174,6.0,16.0,43,0.00,,,0.00,Wunderground v.1.15,2013-11-14 19:55:00,
2013-11-14 14:00:00,51.0,27.5,29.99,SW,231,6.0,6.0,40,0.00,,,0.00,Wunderground v.1.15,2013-11-14 20:00:00,
2013-11-14 14:10:00,50.9,28.6,29.99,SSW,195,7.0,15.0,42,0.00,,,0.00,Wunderground v.1.15,2013-11-14 20:10:00,
2013-11-14 14:20:00,50.6,27.7,29.99,SW,221,8.0,8.0,41,0.00,,,0.00,Wunderground v.1.15,2013-11-14 20:20:00,
2013-11-14 14:30:00,50.3,27.5,29.99,SW,225,7.0,15.0,41,0.00,,,0.00,Wunderground v.1.15,2013-11-14 20:30:00,
2013-11-14 14:35:00,50.1,27.9,29.98,SW,231,7.0,15.0,42,0.00,,,0.00,Wunderground v.1.15,2013-11-14 20:35:00,
2013-11-14 14:45:00,49.7,27.5,29.99,SSW,205,7.0,15.0,42,0.00,,,0.00,Wunderground v.1.15,2013-11-14 20:45:00,
2013-11-14 14:50:00,49.5,27.3,29.99,SSW,207,6.0,15.0,42,0.00,,,0.00,Wunderground v.1.15,2013-11-14 20:50:00,
2013-11-14 15:00:00,49.6,27.4,29.99,SW,234,6.0,7.0,42,0.00,,,0.00,Wunderground v.1.15,2013-11-14 21:00:00,
2013-11-14 15:10:00,49.7,27.5,29.98,SSE,164,5.0,5.0,42,0.00,,,0.00,Wunderground v.1.15,2013-11-14 21:10:00,
2013-11-14 15:20:00,49.5,27.9,29.98,West,263,5.0,14.0,43,0.00,,,0.00,Wunderground v.1.15,2013-11-14 21:20:00,
2013-11-14 15:25:00,49.4,28.9,29.99,South,175,4.0,14.0,45,0.00,,,0.00,Wunderground v.1.15,2013-11-14 21:25:00,
2013-11-14 15:35:00,49.2,28.2,29.99,SSW,213,4.0,14.0,44,0.00,,,0.00,Wunderground v.1.15,2013-11-14 21:35:00,
2013-11-14 15:40:00,49.3,28.3,29.99,SW,215,5.0,14.0,44,0.00,,,0.00,Wunderground v.1.15,2013-11-14 21:40:00,
2013-11-14 15:50:00,49.1,29.2,29.99,SSW,195,4.0,4.0,46,0.00,,,0.00,Wunderground v.1.15,2013-11-14 21:50:00,
2013-11-14 15:55:00,49.0,29.1,29.99,SSW,209,4.0,6.0,46,0.00,,,0.00,Wunderground v.1.15,2013-11-14 21:55:00,
2013-11-14 16:00:00,48.7,27.7,29.99,SW,217,4.0,5.0,44,0.00,,,0.00,Wunderground v.1.15,2013-11-14 22:00:00,
2013-11-14 16:10:00,48.4,26.9,29.99,SSW,200,5.0,5.0,43,0.00,,,0.00,Wunderground v.1.15,2013-11-14 22:10:00,
2013-11-14 16:15:00,48.2,27.8,29.99,SSW,211,4.0,18.0,45,0.00,,,0.00,Wunderground v.1.15,2013-11-14 22:15:00,
2013-11-14 16:25:00,47.3,28.1,29.98,South,179,3.0,18.0,47,0.00,,,0.00,Wunderground v.1.15,2013-11-14 22:25:00,
2013-11-14 16:30:00,46.8,27.6,29.98,ESE,116,3.0,18.0,47,0.00,,,0.00,Wunderground v.1.15,2013-11-14 22:30:00,
2013-11-14 16:40:00,46.3,27.2,29.98,South,187,4.0,18.0,47,0.00,,,0.00,Wunderground v.1.15,2013-11-14 22:40:00,
2013-11-14 16:45:00,46.2,27.1,29.98,SSE,165,3.0,18.0,47,0.00,,,0.00,Wunderground v.1.15,2013-11-14 22:45:00,
2013-11-14 16:55:00,45.8,26.7,29.97,SE,132,4.0,18.0,47,0.00,,,0.00,Wunderground v.1.15,2013-11-14 22:55:00,
2013-11-14 17:00:00,45.8,26.7,29.98,SE,146,4.0,4.0,47,0.00,,,0.00,Wunderground v.1.15,2013-11-14 23:00:00,
2013-11-14 17:10:00,45.1,26.6,29.98,SSW,202,3.0,3.0,48,0.00,,,0.00,Wunderground v.1.15,2013-11-14 23:10:00,
2013-11-14 17:20:00,44.5,26.5,29.98,SSW,199,2.0,12.0,49,0.00,,,0.00,Wunderground v.1.15,2013-11-14 23:20:00,
2013-11-14 17:30:00,43.9,26.4,29.98,SSE,163,3.0,12.0,50,0.00,,,0.00,Wunderground v.1.15,2013-11-14 23:30:00,
2013-11-14 17:35:00,43.4,26.5,29.98,SE,128,3.0,12.0,51,0.00,,,0.00,Wunderground v.1.15,2013-11-14 23:35:00,
2013-11-14 17:45:00,43.3,26.4,29.98,South,170,3.0,12.0,51,0.00,,,0.00,Wunderground v.1.15,2013-11-14 23:45:00,
2013-11-14 17:55:00,43.2,26.7,29.98,SSW,198,3.0,12.0,52,0.00,,,0.00,Wunderground v.1.15,2013-11-14 23:55:00,
2013-11-14 18:00:00,42.9,26.9,29.99,South,191,2.0,2.0,53,0.00,,,0.00,Wunderground v.1.15,2013-11-15 00:00:00,
2013-11-14 18:10:00,42.2,27.2,29.99,SE,129,2.0,10.0,55,0.00,,,0.00,Wunderground v.1.15,2013-11-15 00:10:00,
2013-11-14 18:20:00,41.9,27.3,29.99,South,181,2.0,10.0,56,0.00,,,0.00,Wunderground v.1.15,2013-11-15 00:20:00,
2013-11-14 18:25:00,41.6,27.5,29.99,South,186,2.0,10.0,57,0.00,,,0.00,Wunderground v.1.15,2013-11-15 00:25:00,
2013-11-14 18:35:00,41.0,27.3,29.99,South,176,2.0,4.0,58,0.00,,,0.00,Wunderground v.1.15,2013-11-15 00:35:00,
2013-11-14 18:45:00,40.5,27.3,29.99,SSE,160,1.0,10.0,59,0.00,,,0.00,Wunderground v.1.15,2013-11-15 00:45:00,
2013-11-14 18:55:00,40.0,27.2,29.99,SSE,156,1.0,10.0,60,0.00,,,0.00,Wunderground v.1.15,2013-11-15 00:55:00,
2013-11-14 19:00:00,39.7,27.3,29.99,SSE,156,1.0,1.0,61,0.00,,,0.00,Wunderground v.1.15,2013-11-15 01:00:00,
2013-11-14 19:10:00,39.8,27.4,30.00,WSW,246,1.0,10.0,61,0.00,,,0.00,Wunderground v.1.15,2013-11-15 01:10:00,
2013-11-14 19:15:00,39.9,27.5,30.00,South,176,2.0,10.0,61,0.00,,,0.00,Wunderground v.1.15,2013-11-15 01:15:00,
2013-11-14 19:25:00,40.1,27.7,30.00,SSW,203,2.0,10.0,61,0.00,,,0.00,Wunderground v.1.15,2013-11-15 01:25:00,
2013-11-14 19:35:00,40.1,28.1,30.00,SSW,207,1.0,10.0,62,0.00,,,0.00,Wunderground v.1.15,2013-11-15 01:35:00,
2013-11-14 19:45:00,40.1,28.5,30.00,SSW,200,1.0,10.0,63,0.00,,,0.00,Wunderground v.1.15,2013-11-15 01:45:00,
2013-11-14 19:50:00,40.0,28.4,30.00,South,190,2.0,2.0,63,0.00,,,0.00,Wunderground v.1.15,2013-11-15 01:50:00,
2013-11-14 20:00:00,39.6,28.4,30.00,SSW,210,1.0,1.0,64,0.00,,,0.00,Wunderground v.1.15,2013-11-15 02:00:00,
2013-11-14 20:10:00,39.4,28.6,30.00,SW,217,1.0,6.0,65,0.00,,,0.00,Wunderground v.1.15,2013-11-15 02:10:00,
2013-11-14 20:20:00,38.8,28.8,30.00,SSW,202,1.0,6.0,67,0.00,,,0.00,Wunderground v.1.15,2013-11-15 02:20:00,
2013-11-14 20:25:00,38.6,28.6,30.01,SSW,200,1.0,6.0,67,0.00,,,0.00,Wunderground v.1.15,2013-11-15 02:25:00,
2013-11-14 20:35:00,38.3,28.3,30.00,SSW,204,1.0,6.0,67,0.00,,,0.00,Wunderground v.1.15,2013-11-15 02:35:00,
2013-11-14 20:40:00,38.1,28.5,30.00,South,175,1.0,1.0,68,0.00,,,0.00,Wunderground v.1.15,2013-11-15 02:40:00,
2013-11-14 20:50:00,37.5,28.2,30.01,South,176,1.0,6.0,69,0.00,,,0.00,Wunderground v.1.15,2013-11-15 02:50:00,
2013-11-14 20:55:00,37.2,28.3,30.01,SW,214,0.0,6.0,70,0.00,,,0.00,Wunderground v.1.15,2013-11-15 02:55:00,
2013-11-14 21:00:00,37.2,28.3,30.00,SSW,201,0.0,0.0,70,0.00,,,0.00,Wunderground v.1.15,2013-11-15 03:00:00,
2013-11-14 21:10:00,37.6,28.7,30.01,SSW,207,1.0,7.0,70,0.00,,,0.00,Wunderground v.1.15,2013-11-15 03:10:00,
2013-11-14 21:15:00,38.0,28.7,30.01,SSW,212,2.0,7.0,69,0.00,,,0.00,Wunderground v.1.15,2013-11-15 03:15:00,
2013-11-14 21:25:00,38.4,28.8,30.00,SSW,194,2.0,7.0,68,0.00,,,0.00,Wunderground v.1.15,2013-11-15 03:25:00,
2013-11-14 21:30:00,38.7,29.0,30.01,SW,232,2.0,7.0,68,0.00,,,0.00,Wunderground v.1.15,2013-11-15 03:30:00,
2013-11-14 21:40:00,38.9,28.9,30.00,WSW,240,3.0,3.0,67,0.00,,,0.00,Wunderground v.1.15,2013-11-15 03:40:00,
2013-11-14 21:50:00,39.2,29.2,30.00,SSE,153,3.0,3.0,67,0.00,,,0.00,Wunderground v.1.15,2013-11-15 03:50:00,
2013-11-14 22:00:00,39.2,29.2,30.00,SSE,165,3.0,3.0,67,0.00,,,0.00,Wunderground v.1.15,2013-11-15 04:00:00,
2013-11-14 22:10:00,39.0,29.0,30.00,SSW,198,3.0,3.0,67,0.00,,,0.00,Wunderground v.1.15,2013-11-15 04:10:00,
2013-11-14 22:20:00,38.5,28.9,30.00,South,176,2.0,4.0,68,0.00,,,0.00,Wunderground v.1.15,2013-11-15 04:20:00,
2013-11-14 22:25:00,38.1,28.5,30.00,SW,219,2.0,4.0,68,0.00,,,0.00,Wunderground v.1.15,2013-11-15 04:25:00,
2013-11-14 22:35:00,37.8,28.5,30.00,SSE,151,1.0,4.0,69,0.00,,,0.00,Wunderground v.1.15,2013-11-15 04:35:00,
2013-11-14 22:40:00,37.9,28.6,30.00,SSW,196,2.0,2.0,69,0.00,,,0.00,Wunderground v.1.15,2013-11-15 04:40:00,
2013-11-14 22:50:00,37.9,29.0,30.00,SSW,210,2.0,4.0,70,0.00,,,0.00,Wunderground v.1.15,2013-11-15 04:50:00,
2013-11-14 23:00:00,37.5,28.9,30.00,SSW,201,2.0,2.0,71,0.00,,,0.00,Wunderground v.1.15,2013-11-15 05:00:00,
2013-11-14 23:05:00,37.4,28.9,30.00,SW,234,2.0,3.0,71,0.00,,,0.00,Wunderground v.1.15,2013-11-15 05:05:00,
2013-11-14 23:15:00,37.2,29.0,30.00,South,176,2.0,7.0,72,0.00,,,0.00,Wunderground v.1.15,2013-11-15 05:15:00,
2013-11-14 23:25:00,36.9,28.7,30.00,South,172,3.0,7.0,72,0.00,,,0.00,Wunderground v.1.15,2013-11-15 05:25:00,
2013-11-14 23:30:00,36.9,29.1,30.00,SSW,207,3.0,3.0,73,0.00,,,0.00,Wunderground v.1.15,2013-11-15 05:30:00,
2013-11-14 23:40:00,36.9,29.1,30.00,SE,143,2.0,2.0,73,0.00,,,0.00,Wunderground v.1.15,2013-11-15 05:40:00,
2013-11-14 23:45:00,37.0,29.1,30.00,SW,226,2.0,3.0,73,0.00,,,0.00,Wunderground v.1.15,2013-11-15 05:45:00,
2013-11-14 23:50:00,37.1,29.2,30.00,South,169,2.0,2.0,73,0.00,,,0.00,Wunderground v.1.15,2013-11-15 05:50:00,